Terminal Aerodrome Forecast
Issued by NWS Dallas/Fort Worth, TX

Home | Current Version | Previous Version | Text Only | Print | Product List | Glossary On
Versions: 1 2 3 4 5 6 7 8 9 10 11 12 13 14 15 16 17 18 19 20 21 22 23 24 25 26 27 28 29 30 31 32 33 34
375
FTUS44 KFWD 202108 AAA
TAFACT
TAF AMD
KACT 202108Z 2021/2118 23009KT P6SM SCT250
     FM211300 24013KT P6SM VCSH BKN090=

USA.gov is the U.S. government's official web portal to all federal, state and local government web resources and services.